Location: Caltech
(34.1382°N, 118.1253°W)
Time: 07:07:50
(UTC-07:00)

KITSAT 1 - Visible Passes

Search period start: 19 April 2015 00:00
Search period end: 29 April 2015 00:00
Orbit: 1309 x 1322 km, 66.1° (Epoch: 17 April)

Date Brightness Start Highest point End Pass type
(mag) Time Alt. Az. Time Alt. Az. Time Alt. Az.
19 Apr 11.3 00:44:06 38° N 00:44:06 38° N 00:48:51 10° NNE visible
19 Apr 12.2 02:36:03 14° NW 02:37:59 15° NW 02:42:01 10° N visible
19 Apr 12.0 23:07:16 17° NE 23:07:16 17° NE 23:09:00 10° NE visible
20 Apr 11.3 00:59:12 38° NNW 00:59:12 38° NNW 01:04:44 10° NNE visible
20 Apr 11.6 23:22:18 26° NE 23:22:18 26° NE 23:25:32 10° NE visible
21 Apr 11.5 01:14:13 31° NW 01:14:13 31° NW 01:20:27 10° N visible
21 Apr 11.1 23:37:15 38° NNE 23:37:15 38° NNE 23:41:48 10° NNE visible
22 Apr 11.9 01:29:09 22° NW 01:30:07 22° NW 01:35:58 10° N visible
22 Apr 12.1 22:00:10 12° ENE 22:00:10 12° ENE 22:00:51 10° ENE visible
22 Apr 10.9 23:52:05 49° N 23:52:05 49° N 23:57:52 10° NNE visible
23 Apr 12.3 01:43:59 13° WNW 01:46:56 15° NW 01:51:07 10° N visible
23 Apr 11.5 22:14:53 22° ENE 22:14:53 22° ENE 22:17:57 10° NE visible
24 Apr 11.0 00:06:47 46° NW 00:06:47 46° NW 00:13:45 10° NNE visible
24 Apr 12.6 02:02:40 10° NW 02:03:55 10° NNW 02:04:42 10° NNW visible
24 Apr 10.9 22:29:24 39° ENE 22:29:24 39° ENE 22:34:31 10° NE visible
25 Apr 11.4 00:21:17 31° WNW 00:22:28 32° NW 00:29:29 10° N visible
25 Apr 10.2 22:43:41 70° NE 22:43:41 70° NE 22:50:48 10° NNE visible
26 Apr 12.0 00:35:32 17° WNW 00:39:04 22° NW 00:45:01 10° N visible
26 Apr 11.4 21:05:43 20° E 21:05:43 20° E 21:09:45 10° ENE visible
26 Apr 10.3 22:57:31 62° WSW 22:58:47 71° WNW 23:06:52 10° NNE visible
27 Apr 12.4 00:51:09 10° WNW 00:55:52 16° NW 01:00:12 10° N visible
27 Apr 10.7 21:18:48 32° ESE 21:19:50 33° ESE 21:26:53 10° NE visible
27 Apr 10.9 23:10:30 25° WSW 23:15:01 48° NW 23:22:47 10° NNE visible
28 Apr 12.7 01:11:03 10° NW 01:12:51 11° NNW 01:14:11 10° NNW visible
28 Apr 10.3 21:28:04 10° S 21:35:43 51° ESE 21:43:30 10° NE visible
28 Apr 11.6 23:24:15 10° WSW 23:31:26 33° NW 23:38:31 10° N visible
